Lid_Strength_Index
-1 -1 -2 -2 -1 -2 -1 -2 -2 -2 -2 -2 -1 -2 -2 -1 -0 -0 -1 -0 -2 -2 -2 -2 -2 -2 -2 -2 -2 -2 -2 -2 -2
-2 -1 -2 -2 -1 -1 -1 -2 -2 -2 -2 -2 -1 -2 -1 -0 -1 -0 -0 -0 -2 -2 -2 -2 -2 -2 -2 -2 -2 -2 -2 -2 -2
-1 -1 -2 -2 -1 -2 -1 -1 -2 -2 -2 -2 -1 -1 -1 -0 -0 -0 -0 -2 -2 -2 -2 -2 -2 -2 -2 -2 -2 -2 -2 -2 -2
-2 -2 -2 -2 -1 -2 -2 -1 -1 -1 -1 -1 -1 -1 -1 1 1 -0 -0 -2 -2 -2 -2 -2 -2 -2 -2 -2 -2 -2 -2 -2 -2
-1 -1 -1 -2 -2 -2 -2 -2 -1 -1 -1 -1 -1 -1 -1 0 1 0 -0 -2 -2 -2 -2 -2 -2 -2 -2 -2 -2 -2 -2 -2 -2
-0 0 -0 -1 -2 -2 -2 -2 -2 -2 -1 -1 -1 -1 0 1 0 0 -2 -3 -2 -2 -2 -2 -2 -2 -2 -2 -2 -2 -2 -2 -2
-0 1 0 -1 -1 -1 -1 -2 -1 -1 -0 -0 -1 0 1 0 -0 -1 -2 -3 -2 -2 -2 -2 -2 -2 -2 -2 -2 -2 -2 -2 -2
1 1 0 0 1 1 0 -0 -1 0 -0 -0 0 -0 -0 -0 -1 -1 -2 -2 -2 -2 -2 -2 -2 -2 -2 -2 -2 -2 -2 -2 -2
1 0 0 1 1 2 2 2 0 -0 -0 -0 -0 -0 -0 0 0 -0 -1 -2 -1 -2 -2 -2 -2 -2 -2 -2 -2 -2 -2 -2 -2
1 0 0 1 0 1 1 1 1 -0 0 -0 0 0 1 0 0 -0 -0 -1 -1 -2 -2 -2 -2 -2 -2 -2 -2 -2 -2 -2 -1
0 1 0 1 1 1 1 0 0 0 0 1 0 1 1 1 1 0 -0 -1 -1 -2 -2 -2 -2 -2 -2 -2 -2 -2 -2 -2 -1
1 0 0 0 0 1 1 1 -0 0 1 1 1 1 2 1 1 1 0 -0 -0 -1 -2 -2 -2 -2 -2 -2 -2 -2 -2 -2 -1
1 1 0 -0 -0 1 1 1 1 2 1 1 1 2 1 1 1 1 0 -0 -0 -1 -2 -2 -2 -2 -2 -2 -2 -2 -2 -2 -2
1 1 1 0 0 0 1 1 1 2 2 1 1 1 2 2 1 1 1 0 -0 -0 -1 -1 -1 -2 -2 -2 -2 -2 -2 -2 -2
2 0 1 0 0 1 1 1 1 1 1 1 1 2 2 2 2 1 0 1 1 0 -0 -0 -0 -1 -2 -2 -2 -2 -2 -2 -2
4 2 0 0 1 1 1 1 1 2 1 2 3 2 2 2 2 1 1 1 0 0 0 -0 -0 -0 -1 -2 -2 -2 -2 -2 -2
5 6 4 1 1 1 1 1 2 2 1 3 3 5 3 2 2 1 1 1 0 0 0 0 -0 0 -0 -0 -1 -2 -2 -2 -2
8 7 8 6 4 3 1 1 2 3 2 1 3 6 7 4 3 2 2 1 1 1 1 0 1 0 -0 -1 -1 -1 -1 -2 -2
9 9 9 9 7 7 5 5 2 2 3 3 4 6 6 6 7 4 3 1 1 1 1 0 0 0 0 0 1 0 -1 -2 -2
11 10 10 10 9 8 7 7 6 6 3 3 5 6 5 6 7 7 5 4 2 1 1 1 1 0 1 0 0 0 -1 -2 -2